Weather History for KMYL - September, 2013

Change the Weather History Date:

Thursday, September 12, 2013

  Actual Average Record
Temperature  
Mean Temperature 66 °F 52 °F  
Max Temperature 80 °F 69 °F 87 °F (1990)
Min Temperature 52 °F 35 °F 23 °F (1984)
Degree Days  
Heating Degree Days 0 13  
Month to date heating degree days 34 134  
Since 1 July heating degree days 81 462  
Cooling Degree Days 1 0  
Month to date cooling degree days 5 0  
Year to date cooling degree days 185 25  
Growing Degree Days 15 (Base 50)    
Moisture  
Dew Point 45 °F    
Average Humidity 52    
Maximum Humidity 72    
Minimum Humidity 32    
Precipitation  
Precipitation 0.01 in 0.03 in 0.57 in (1969)
Month to date precipitation 0.32 0.33  
Year to date precipitation 11.89 13.37  
Sea Level Pressure  
Sea Level Pressure 29.99 in    
Wind  
Wind Speed 3 mph (NNW)    
Max Wind Speed 13 mph    
Max Gust Speed 25 mph    
Visibility 10 miles    
Events Rain    
T = Trace of Precipitation, MM = Missing Value Source: NWS Daily Summary

Daily Weather History Graph

Daily Weather History Graph

Search for Another Location

Airport or City:

Trip Planner

Search our weather history database for the weather conditions in past years. The results will help you decide how hot, cold, wet, or windy it might be!

Date:

Astronomy

Sep. 12, 2013 Rise Set
Actual Time 7:19 AM MDT 8:00 PM MDT
Civil Twilight 6:50 AM MDT 8:29 PM MDT
Nautical Twilight 6:15 AM MDT 9:04 PM MDT
Astronomical Twilight 5:38 AM MDT 9:41 PM MDT
Moon 3:08 PM MDT (9/12) No Moon Set
Length of Visible Light 13h 39m
Length of Day
12h 40m
Waxing Crescent, 51% of the Moon is Illuminated
Sep 12
Waxing Crescent
Sep 19
Full
Sep 26
Last Quarter
Oct 4
New
Oct 11
First Quarter

Hourly Weather History & Observations

Time (MDT) Temp. Dew Point Humidity Pressure Visibility Wind Dir Wind Speed Gust Speed Precip Events Conditions
12:51 AM 61.0 °F 39.0 °F 44% 29.99 in 10.0 mi Calm Calm - N/A   Clear
1:51 AM 59.0 °F 37.0 °F 44% 30.00 in 10.0 mi NNE 4.6 mph - N/A   Clear
2:51 AM 59.0 °F 39.9 °F 49% 30.01 in 10.0 mi Calm Calm - N/A   Clear
3:51 AM 57.9 °F 41.0 °F 53% 30.01 in 10.0 mi Calm Calm - N/A   Clear
4:51 AM 57.0 °F 41.0 °F 55% 30.00 in 10.0 mi Calm Calm - N/A   Clear
5:51 AM 53.1 °F 39.9 °F 61% 30.01 in 10.0 mi Calm Calm - N/A   Clear
6:51 AM 52.0 °F 41.0 °F 66% 30.02 in 10.0 mi Calm Calm - N/A   Clear
7:51 AM 54.0 °F 41.0 °F 62% 30.03 in 10.0 mi Calm Calm - N/A   Scattered Clouds
8:51 AM 55.9 °F 43.0 °F 62% 30.05 in 10.0 mi Calm Calm - N/A   Scattered Clouds
9:51 AM 63.0 °F 44.1 °F 50% 30.04 in 10.0 mi Calm Calm - N/A   Overcast
10:51 AM 66.9 °F 45.0 °F 45% 30.04 in 10.0 mi Calm Calm - N/A   Overcast
11:51 AM 72.0 °F 46.9 °F 41% 30.02 in 10.0 mi Calm Calm - N/A   Overcast
12:51 PM 75.9 °F 46.9 °F 36% 30.00 in 10.0 mi WSW 8.1 mph - N/A   Partly Cloudy
1:51 PM 78.1 °F 46.9 °F 33% 29.99 in 10.0 mi West 8.1 mph - N/A   Overcast
2:51 PM 77.0 °F 48.0 °F 36% 29.98 in 10.0 mi NW 9.2 mph - N/A   Overcast
3:51 PM 75.9 °F 48.0 °F 37% 29.96 in 10.0 mi Variable 3.5 mph - N/A   Overcast
4:51 PM 75.0 °F 46.9 °F 37% 29.96 in 10.0 mi West 3.5 mph - N/A   Scattered Clouds
5:51 PM 75.0 °F 45.0 °F 34% 29.95 in 10.0 mi WNW 4.6 mph - N/A   Mostly Cloudy
6:51 PM 75.0 °F 45.0 °F 34% 29.94 in 10.0 mi Calm Calm - N/A   Overcast
7:51 PM 72.0 °F 46.0 °F 40% 29.96 in 10.0 mi North 10.4 mph - N/A   Overcast
8:51 PM 63.0 °F 54.0 °F 72% 29.99 in 10.0 mi East 8.1 mph - 0.00 in   Overcast
9:51 PM 64.0 °F 53.1 °F 67% 29.96 in 10.0 mi North 4.6 mph - N/A   Overcast
10:51 PM 62.1 °F 55.0 °F 78% 29.98 in 9.0 mi Calm Calm - 0.01 in Rain Light Rain
11:51 PM 61.0 °F 55.9 °F 83% 29.97 in 10.0 mi ENE 3.5 mph - 0.00 in   Overcast